Year,Month,Day,Hour,Minute,Value (Times are PST for temperature in C)
2009,11,27,00,00,6.20
2009,11,27,00,01,6.20
2009,11,27,00,02,6.10
2009,11,27,00,03,6.00
2009,11,27,00,04,6.00
2009,11,27,00,05,6.00
2009,11,27,00,06,6.00
2009,11,27,00,07,5.90
2009,11,27,00,08,5.90
2009,11,27,00,09,6.00
2009,11,27,00,10,6.10
2009,11,27,00,11,6.20
2009,11,27,00,12,6.20
2009,11,27,00,13,6.20
2009,11,27,00,14,6.30
2009,11,27,00,15,6.40
2009,11,27,00,16,6.50
2009,11,27,00,17,6.60
2009,11,27,00,18,6.70
2009,11,27,00,19,6.70
2009,11,27,00,20,6.80
2009,11,27,00,21,6.80
2009,11,27,00,22,6.80
2009,11,27,00,23,6.80
2009,11,27,00,24,6.80
2009,11,27,00,25,6.70
2009,11,27,00,26,6.60
2009,11,27,00,27,6.40
2009,11,27,00,28,6.30
2009,11,27,00,29,6.20
2009,11,27,00,30,6.10
2009,11,27,00,31,5.90
2009,11,27,00,32,5.80
2009,11,27,00,33,5.70
2009,11,27,00,34,5.70
2009,11,27,00,35,5.70
2009,11,27,00,36,5.60
2009,11,27,00,37,5.50
2009,11,27,00,38,5.50
2009,11,27,00,39,5.50
2009,11,27,00,40,5.50
2009,11,27,00,41,5.60
2009,11,27,00,42,5.70
2009,11,27,00,43,5.70
2009,11,27,00,44,5.70
2009,11,27,00,45,5.70
2009,11,27,00,46,5.80
2009,11,27,00,47,5.90
2009,11,27,00,48,5.90
2009,11,27,00,49,6.00
2009,11,27,00,50,6.00
2009,11,27,00,51,6.00
2009,11,27,00,52,6.10
2009,11,27,00,53,6.10
2009,11,27,00,54,6.10
2009,11,27,00,55,6.20
2009,11,27,00,56,6.20
2009,11,27,00,57,6.20
2009,11,27,00,58,6.10
2009,11,27,00,59,6.10
2009,11,27,01,00,6.00
2009,11,27,01,01,6.00
2009,11,27,01,02,5.90
2009,11,27,01,03,5.90
2009,11,27,01,04,5.90
2009,11,27,01,05,5.90
2009,11,27,01,06,5.80
2009,11,27,01,07,5.80
2009,11,27,01,08,5.70
2009,11,27,01,09,5.70
2009,11,27,01,10,5.70
2009,11,27,01,11,5.70
2009,11,27,01,12,5.70
2009,11,27,01,13,5.70
2009,11,27,01,14,5.60
2009,11,27,01,15,5.50
2009,11,27,01,16,5.40
2009,11,27,01,17,5.30
2009,11,27,01,18,5.30
2009,11,27,01,19,5.30
2009,11,27,01,20,5.10
2009,11,27,01,21,5.10
2009,11,27,01,22,5.00
2009,11,27,01,23,4.90
2009,11,27,01,24,4.80
2009,11,27,01,25,4.80
2009,11,27,01,26,4.90
2009,11,27,01,27,5.00
2009,11,27,01,28,5.20
2009,11,27,01,29,5.40
2009,11,27,01,30,5.60
2009,11,27,01,31,5.70
2009,11,27,01,32,5.80
2009,11,27,01,33,5.90
2009,11,27,01,34,6.00
2009,11,27,01,35,6.20
2009,11,27,01,36,6.20
2009,11,27,01,37,6.20
2009,11,27,01,38,6.20
2009,11,27,01,39,6.20
2009,11,27,01,40,6.20
2009,11,27,01,41,6.20
2009,11,27,01,42,6.20
2009,11,27,01,43,6.20
2009,11,27,01,44,6.00
2009,11,27,01,45,5.80
2009,11,27,01,46,5.50
2009,11,27,01,47,5.30
2009,11,27,01,48,5.10
2009,11,27,01,49,4.90
2009,11,27,01,50,4.80
2009,11,27,01,51,4.60
2009,11,27,01,52,4.50
2009,11,27,01,53,4.50
2009,11,27,01,54,4.40
2009,11,27,01,55,4.30
2009,11,27,01,56,4.30
2009,11,27,01,57,4.40
2009,11,27,01,58,4.40
2009,11,27,01,59,4.40
2009,11,27,02,00,4.40
2009,11,27,02,01,4.30
2009,11,27,02,02,4.20
2009,11,27,02,03,4.10
2009,11,27,02,04,4.10
2009,11,27,02,05,4.00
2009,11,27,02,06,4.00
2009,11,27,02,07,4.00
2009,11,27,02,08,4.00
2009,11,27,02,09,3.90
2009,11,27,02,10,3.80
2009,11,27,02,11,3.80
2009,11,27,02,12,3.80
2009,11,27,02,13,3.80
2009,11,27,02,14,3.80
2009,11,27,02,15,3.80
2009,11,27,02,16,3.90
2009,11,27,02,17,4.00
2009,11,27,02,18,4.20
2009,11,27,02,19,4.40
2009,11,27,02,20,4.60
2009,11,27,02,21,4.80
2009,11,27,02,22,4.90
2009,11,27,02,23,5.10
2009,11,27,02,24,5.10
2009,11,27,02,25,5.30
2009,11,27,02,26,5.30
2009,11,27,02,27,5.30
2009,11,27,02,28,5.40
2009,11,27,02,29,5.40
2009,11,27,02,30,5.40
2009,11,27,02,31,5.50
2009,11,27,02,32,5.50
2009,11,27,02,33,5.50
2009,11,27,02,34,5.50
2009,11,27,02,35,5.50
2009,11,27,02,36,5.50
2009,11,27,02,37,5.50
2009,11,27,02,38,5.50
2009,11,27,02,39,5.50
2009,11,27,02,40,5.50
2009,11,27,02,41,5.50
2009,11,27,02,42,5.50
2009,11,27,02,43,5.50
2009,11,27,02,44,5.60
2009,11,27,02,45,5.60
2009,11,27,02,46,5.60
2009,11,27,02,47,5.50
2009,11,27,02,48,5.40
2009,11,27,02,49,5.20
2009,11,27,02,50,5.10
2009,11,27,02,51,4.90
2009,11,27,02,52,4.80
2009,11,27,02,53,4.70
2009,11,27,02,54,4.60
2009,11,27,02,55,4.50
2009,11,27,02,56,4.50
2009,11,27,02,57,4.40
2009,11,27,02,58,4.40
2009,11,27,02,59,4.40
2009,11,27,03,00,4.30
2009,11,27,03,01,4.30
2009,11,27,03,02,4.30
2009,11,27,03,03,4.20
2009,11,27,03,04,4.20
2009,11,27,03,05,4.20
2009,11,27,03,06,4.20
2009,11,27,03,07,4.10
2009,11,27,03,08,4.10
2009,11,27,03,09,4.00
2009,11,27,03,10,4.00
2009,11,27,03,11,3.90
2009,11,27,03,12,3.80
2009,11,27,03,13,3.80
2009,11,27,03,14,3.80
2009,11,27,03,15,3.80
2009,11,27,03,16,3.80
2009,11,27,03,17,3.80
2009,11,27,03,18,3.80
2009,11,27,03,19,3.80
2009,11,27,03,20,3.80
2009,11,27,03,21,3.80
2009,11,27,03,22,3.90
2009,11,27,03,23,4.00
2009,11,27,03,24,4.00
2009,11,27,03,25,4.10
2009,11,27,03,26,4.20
2009,11,27,03,27,4.30
2009,11,27,03,28,4.40
2009,11,27,03,29,4.50
2009,11,27,03,30,4.60
2009,11,27,03,31,4.60
2009,11,27,03,32,4.60
2009,11,27,03,33,4.70
2009,11,27,03,34,4.80
2009,11,27,03,35,4.80
2009,11,27,03,36,4.80
2009,11,27,03,37,4.80
2009,11,27,03,38,4.70
2009,11,27,03,39,4.70
2009,11,27,03,40,4.60
2009,11,27,03,41,4.60
2009,11,27,03,42,4.60
2009,11,27,03,43,4.60
2009,11,27,03,44,4.60
2009,11,27,03,45,4.60
2009,11,27,03,46,4.60
2009,11,27,03,47,4.60
2009,11,27,03,48,4.60
2009,11,27,03,49,4.60
2009,11,27,03,50,4.60
2009,11,27,03,51,4.60
2009,11,27,03,52,4.70
2009,11,27,03,53,4.70
2009,11,27,03,54,4.70
2009,11,27,03,55,4.70
2009,11,27,03,56,4.70
2009,11,27,03,57,4.70
2009,11,27,03,58,4.70
2009,11,27,03,59,4.70
2009,11,27,04,00,4.60
2009,11,27,04,01,4.60
2009,11,27,04,02,4.50
2009,11,27,04,03,4.50
2009,11,27,04,04,4.50
2009,11,27,04,05,4.50
2009,11,27,04,06,4.50
2009,11,27,04,07,4.50
2009,11,27,04,08,4.60
2009,11,27,04,09,4.60
2009,11,27,04,10,4.60
2009,11,27,04,11,4.60
2009,11,27,04,12,4.70
2009,11,27,04,13,4.60
2009,11,27,04,14,4.70
2009,11,27,04,15,4.80
2009,11,27,04,16,4.90
2009,11,27,04,17,5.00
2009,11,27,04,18,5.10
2009,11,27,04,19,5.10
2009,11,27,04,20,5.10
2009,11,27,04,21,5.10
2009,11,27,04,22,5.00
2009,11,27,04,23,4.80
2009,11,27,04,24,4.70
2009,11,27,04,25,4.70
2009,11,27,04,26,4.70
2009,11,27,04,27,4.60
2009,11,27,04,28,4.60
2009,11,27,04,29,4.60
2009,11,27,04,30,4.60
2009,11,27,04,31,4.70
2009,11,27,04,32,4.70
2009,11,27,04,33,4.80
2009,11,27,04,34,4.90
2009,11,27,04,35,4.90
2009,11,27,04,36,5.00
2009,11,27,04,37,5.10
2009,11,27,04,38,5.10
2009,11,27,04,39,5.10
2009,11,27,04,40,5.10
2009,11,27,04,41,5.10
2009,11,27,04,42,5.10
2009,11,27,04,43,5.10
2009,11,27,04,44,5.10
2009,11,27,04,45,5.00
2009,11,27,04,46,4.90
2009,11,27,04,47,4.90
2009,11,27,04,48,4.90
2009,11,27,04,49,4.90
2009,11,27,04,50,4.90
2009,11,27,04,51,4.90
2009,11,27,04,52,4.90
2009,11,27,04,53,4.80
2009,11,27,04,54,4.80
2009,11,27,04,55,4.80
2009,11,27,04,56,4.70
2009,11,27,04,57,4.60
2009,11,27,04,58,4.50
2009,11,27,04,59,4.40
2009,11,27,05,00,4.30
2009,11,27,05,01,4.20
2009,11,27,05,02,4.20
2009,11,27,05,03,4.10
2009,11,27,05,04,4.00
2009,11,27,05,05,4.00
2009,11,27,05,06,3.90
2009,11,27,05,07,3.80
2009,11,27,05,08,3.80
2009,11,27,05,09,3.70
2009,11,27,05,10,3.60
2009,11,27,05,11,3.40
2009,11,27,05,12,3.30
2009,11,27,05,13,3.30
2009,11,27,05,14,3.30
2009,11,27,05,15,3.30
2009,11,27,05,16,3.20
2009,11,27,05,17,3.10
2009,11,27,05,18,3.10
2009,11,27,05,19,3.00
2009,11,27,05,20,2.90
2009,11,27,05,21,2.90
2009,11,27,05,22,2.90
2009,11,27,05,23,2.80
2009,11,27,05,24,2.80
2009,11,27,05,25,2.70
2009,11,27,05,26,2.70
2009,11,27,05,27,2.70
2009,11,27,05,28,2.70
2009,11,27,05,29,2.70
2009,11,27,05,30,2.70
2009,11,27,05,31,2.70
2009,11,27,05,32,2.60
2009,11,27,05,33,2.60
2009,11,27,05,34,2.60
2009,11,27,05,35,2.60
2009,11,27,05,36,2.60
2009,11,27,05,37,2.60
2009,11,27,05,38,2.60
2009,11,27,05,39,2.60
2009,11,27,05,40,2.60
2009,11,27,05,41,2.60
2009,11,27,05,42,2.60
2009,11,27,05,43,2.60
2009,11,27,05,44,2.50
2009,11,27,05,45,2.50
2009,11,27,05,46,2.50
2009,11,27,05,47,2.40
2009,11,27,05,48,2.40
2009,11,27,05,49,2.40
2009,11,27,05,50,2.50
2009,11,27,05,51,2.50
2009,11,27,05,52,2.50
2009,11,27,05,53,2.50
2009,11,27,05,54,2.50
2009,11,27,05,55,2.50
2009,11,27,05,56,2.50
2009,11,27,05,57,2.50
2009,11,27,05,58,2.40
2009,11,27,05,59,2.30
2009,11,27,06,00,2.20
2009,11,27,06,01,2.20
2009,11,27,06,02,2.10
2009,11,27,06,03,2.10
2009,11,27,06,04,2.10
2009,11,27,06,05,2.10
2009,11,27,06,06,2.00
2009,11,27,06,07,2.00
2009,11,27,06,08,2.00
2009,11,27,06,09,2.00
2009,11,27,06,10,2.00
2009,11,27,06,11,2.00
2009,11,27,06,12,2.00
2009,11,27,06,13,2.10
2009,11,27,06,14,2.10
2009,11,27,06,15,2.00
2009,11,27,06,16,2.00
2009,11,27,06,17,2.00
2009,11,27,06,18,2.00
2009,11,27,06,19,2.00
2009,11,27,06,20,2.00
2009,11,27,06,21,2.00
2009,11,27,06,22,2.00
2009,11,27,06,23,1.90
2009,11,27,06,24,1.90
2009,11,27,06,25,1.90
2009,11,27,06,26,1.90
2009,11,27,06,27,2.00
2009,11,27,06,28,2.10
2009,11,27,06,29,2.20
2009,11,27,06,30,2.20
2009,11,27,06,31,2.10
2009,11,27,06,32,2.10
2009,11,27,06,33,2.00
2009,11,27,06,34,2.10
2009,11,27,06,35,2.10
2009,11,27,06,36,2.10
2009,11,27,06,37,2.10
2009,11,27,06,38,2.10
2009,11,27,06,39,2.00
2009,11,27,06,40,2.00
2009,11,27,06,41,2.00
2009,11,27,06,42,2.00
2009,11,27,06,43,2.00
2009,11,27,06,44,2.00
2009,11,27,06,45,2.10
2009,11,27,06,46,2.10
2009,11,27,06,47,2.10
2009,11,27,06,48,2.20
2009,11,27,06,49,2.20
2009,11,27,06,50,2.20
2009,11,27,06,51,2.20
2009,11,27,06,52,2.10
2009,11,27,06,53,2.00
2009,11,27,06,54,2.00
2009,11,27,06,55,2.00
2009,11,27,06,56,2.00
2009,11,27,06,57,2.00
2009,11,27,06,58,2.00
2009,11,27,06,59,1.90
2009,11,27,07,00,1.90
2009,11,27,07,01,1.90
2009,11,27,07,02,1.90
2009,11,27,07,03,1.80
2009,11,27,07,04,1.80
2009,11,27,07,05,1.80
2009,11,27,07,06,1.80
2009,11,27,07,07,1.80
2009,11,27,07,08,1.80
2009,11,27,07,09,1.70
2009,11,27,07,10,1.70
2009,11,27,07,11,1.70
2009,11,27,07,12,1.70
2009,11,27,07,13,1.70
2009,11,27,07,14,1.70
2009,11,27,07,15,1.70
2009,11,27,07,16,1.70
2009,11,27,07,17,1.70
2009,11,27,07,18,1.70
2009,11,27,07,19,1.70
2009,11,27,07,20,1.70
2009,11,27,07,21,1.80
2009,11,27,07,22,1.80
2009,11,27,07,23,1.80
2009,11,27,07,24,1.80
2009,11,27,07,25,1.80
2009,11,27,07,26,1.80
2009,11,27,07,27,1.80
2009,11,27,07,28,1.80
2009,11,27,07,29,1.80
2009,11,27,07,30,1.70
2009,11,27,07,31,1.70
2009,11,27,07,32,1.70
2009,11,27,07,33,1.70
2009,11,27,07,34,1.70
2009,11,27,07,35,1.70
2009,11,27,07,36,1.70
2009,11,27,07,37,1.70
2009,11,27,07,38,1.70
2009,11,27,07,39,1.70
2009,11,27,07,40,1.70
2009,11,27,07,41,1.70
2009,11,27,07,42,1.70
2009,11,27,07,43,1.70
2009,11,27,07,44,1.70
2009,11,27,07,45,1.70
2009,11,27,07,46,1.70
2009,11,27,07,47,1.70
2009,11,27,07,48,1.60
2009,11,27,07,49,1.60
2009,11,27,07,50,1.60
2009,11,27,07,51,1.60
2009,11,27,07,52,1.60
2009,11,27,07,53,1.60
2009,11,27,07,54,1.60
2009,11,27,07,55,1.60
2009,11,27,07,56,1.60
2009,11,27,07,57,1.60
2009,11,27,07,58,1.60
2009,11,27,07,59,1.60
2009,11,27,08,00,1.70
2009,11,27,08,01,1.80
2009,11,27,08,02,1.80
2009,11,27,08,03,1.80
2009,11,27,08,04,1.90
2009,11,27,08,05,1.90
2009,11,27,08,06,1.80
2009,11,27,08,07,1.80
2009,11,27,08,08,1.80
2009,11,27,08,09,1.80
2009,11,27,08,10,1.80
2009,11,27,08,11,1.80
2009,11,27,08,12,1.80
2009,11,27,08,13,1.90
2009,11,27,08,14,1.90
2009,11,27,08,15,2.00
2009,11,27,08,16,2.10
2009,11,27,08,17,2.10
2009,11,27,08,18,2.20
2009,11,27,08,19,2.20
2009,11,27,08,20,2.20
2009,11,27,08,21,2.20
2009,11,27,08,22,2.20
2009,11,27,08,23,2.10
2009,11,27,08,24,2.10
2009,11,27,08,25,2.10
2009,11,27,08,26,2.10
2009,11,27,08,27,2.10
2009,11,27,08,28,2.20
2009,11,27,08,29,2.20
2009,11,27,08,30,2.20
2009,11,27,08,31,2.20
2009,11,27,08,32,2.20
2009,11,27,08,33,2.20
2009,11,27,08,34,2.20
2009,11,27,08,35,2.20
2009,11,27,08,36,2.20
2009,11,27,08,37,2.20
2009,11,27,08,38,2.20
2009,11,27,08,39,2.20
2009,11,27,08,40,2.20
2009,11,27,08,41,2.20
2009,11,27,08,42,2.20
2009,11,27,08,43,2.20
2009,11,27,08,44,2.20
2009,11,27,08,45,2.20
2009,11,27,08,46,2.20
2009,11,27,08,47,2.20
2009,11,27,08,48,2.20
2009,11,27,08,49,2.20
2009,11,27,08,50,2.20
2009,11,27,08,51,2.20
2009,11,27,08,52,2.30
2009,11,27,08,53,2.30
2009,11,27,08,54,2.30
2009,11,27,08,55,2.30
2009,11,27,08,56,2.30
2009,11,27,08,57,2.30
2009,11,27,08,58,2.30
2009,11,27,08,59,2.40
2009,11,27,09,00,2.40
2009,11,27,09,01,2.40
2009,11,27,09,02,2.40
2009,11,27,09,03,2.50
2009,11,27,09,04,2.50
2009,11,27,09,05,2.50
2009,11,27,09,06,2.50
2009,11,27,09,07,2.60
2009,11,27,09,08,2.60
2009,11,27,09,09,2.70
2009,11,27,09,10,2.70
2009,11,27,09,11,2.70
2009,11,27,09,12,2.70
2009,11,27,09,13,2.80
2009,11,27,09,14,2.80
2009,11,27,09,15,2.80
2009,11,27,09,16,2.90
2009,11,27,09,17,2.90
2009,11,27,09,18,3.00
2009,11,27,09,19,3.10
2009,11,27,09,20,3.20
2009,11,27,09,21,3.30
2009,11,27,09,22,3.40
2009,11,27,09,23,3.50
2009,11,27,09,24,3.50
2009,11,27,09,25,3.50
2009,11,27,09,26,3.60
2009,11,27,09,27,3.60
2009,11,27,09,28,3.60
2009,11,27,09,29,3.60
2009,11,27,09,30,3.60
2009,11,27,09,31,3.70
2009,11,27,09,32,3.80
2009,11,27,09,33,3.90
2009,11,27,09,34,4.00
2009,11,27,09,35,4.20
2009,11,27,09,36,4.20
2009,11,27,09,37,4.30
2009,11,27,09,38,4.30
2009,11,27,09,39,4.30
2009,11,27,09,40,4.40
2009,11,27,09,41,4.40
2009,11,27,09,42,4.40
2009,11,27,09,43,4.40
2009,11,27,09,44,4.40
2009,11,27,09,45,4.50
2009,11,27,09,46,4.50
2009,11,27,09,47,4.60
2009,11,27,09,48,4.60
2009,11,27,09,49,4.70
2009,11,27,09,50,4.80
2009,11,27,09,51,4.90
2009,11,27,09,52,4.90
2009,11,27,09,53,5.00
2009,11,27,09,54,5.10
2009,11,27,09,55,5.10
2009,11,27,09,56,5.10
2009,11,27,09,57,5.10
2009,11,27,09,58,5.20
2009,11,27,09,59,5.30
2009,11,27,10,00,5.30
2009,11,27,10,01,5.30
2009,11,27,10,02,5.30
2009,11,27,10,03,5.30
2009,11,27,10,04,5.40
2009,11,27,10,05,5.40
2009,11,27,10,06,5.40
2009,11,27,10,07,5.40
2009,11,27,10,08,5.50
2009,11,27,10,09,5.50
2009,11,27,10,10,5.60
2009,11,27,10,11,5.60
2009,11,27,10,12,5.70
2009,11,27,10,13,5.70
2009,11,27,10,14,5.80
2009,11,27,10,15,5.90
2009,11,27,10,16,6.00
2009,11,27,10,17,6.10
2009,11,27,10,18,6.20
2009,11,27,10,19,6.20
2009,11,27,10,20,6.30
2009,11,27,10,21,6.30
2009,11,27,10,22,6.40
2009,11,27,10,23,6.40
2009,11,27,10,24,6.40
2009,11,27,10,25,6.60
2009,11,27,10,26,6.60
2009,11,27,10,27,6.60
2009,11,27,10,28,6.60
2009,11,27,10,29,6.70
2009,11,27,10,30,6.80
2009,11,27,10,31,6.80
2009,11,27,10,32,6.80
2009,11,27,10,33,6.80
2009,11,27,10,34,6.80
2009,11,27,10,35,6.90
2009,11,27,10,36,6.90
2009,11,27,10,37,7.00
2009,11,27,10,38,7.00
2009,11,27,10,39,7.10
2009,11,27,10,40,7.20
2009,11,27,10,41,7.30
2009,11,27,10,42,7.30
2009,11,27,10,43,7.30
2009,11,27,10,44,7.40
2009,11,27,10,45,7.50
2009,11,27,10,46,7.50
2009,11,27,10,47,7.60
2009,11,27,10,48,7.60
2009,11,27,10,49,7.70
2009,11,27,10,50,7.80
2009,11,27,10,51,7.80
2009,11,27,10,52,7.80
2009,11,27,10,53,7.90
2009,11,27,10,54,8.00
2009,11,27,10,55,8.00
2009,11,27,10,56,8.10
2009,11,27,10,57,8.20
2009,11,27,10,58,8.20
2009,11,27,10,59,8.30
2009,11,27,11,00,8.30
2009,11,27,11,01,8.30
2009,11,27,11,02,8.30
2009,11,27,11,03,8.30
2009,11,27,11,04,8.30
2009,11,27,11,05,8.30
2009,11,27,11,06,8.40
2009,11,27,11,07,8.40
2009,11,27,11,08,8.40
2009,11,27,11,09,8.40
2009,11,27,11,10,8.50
2009,11,27,11,11,8.50
2009,11,27,11,12,8.50
2009,11,27,11,13,8.40
2009,11,27,11,14,8.40
2009,11,27,11,15,8.40
2009,11,27,11,16,8.40
2009,11,27,11,17,8.40
2009,11,27,11,18,8.40
2009,11,27,11,19,8.40
2009,11,27,11,20,8.50
2009,11,27,11,21,8.50
2009,11,27,11,22,8.50
2009,11,27,11,23,8.60
2009,11,27,11,24,8.60
2009,11,27,11,25,8.60
2009,11,27,11,26,8.70
2009,11,27,11,27,8.70
2009,11,27,11,28,8.70
2009,11,27,11,29,8.60
2009,11,27,11,30,8.60
2009,11,27,11,31,8.60
2009,11,27,11,32,8.70
2009,11,27,11,33,8.70
2009,11,27,11,34,8.80
2009,11,27,11,35,8.90
2009,11,27,11,36,8.90
2009,11,27,11,37,8.90
2009,11,27,11,38,8.90
2009,11,27,11,39,8.90
2009,11,27,11,40,9.00
2009,11,27,11,41,9.00
2009,11,27,11,42,9.10
2009,11,27,11,43,9.10
2009,11,27,11,44,9.10
2009,11,27,11,45,9.10
2009,11,27,11,46,9.10
2009,11,27,11,47,9.10
2009,11,27,11,48,9.00
2009,11,27,11,49,9.00
2009,11,27,11,50,8.90
2009,11,27,11,51,8.90
2009,11,27,11,52,8.90
2009,11,27,11,53,8.80
2009,11,27,11,54,8.80
2009,11,27,11,55,8.70
2009,11,27,11,56,8.70
2009,11,27,11,57,8.70
2009,11,27,11,58,8.70
2009,11,27,11,59,8.70
2009,11,27,12,00,8.70
2009,11,27,12,01,8.70
2009,11,27,12,02,8.70
2009,11,27,12,03,8.80
2009,11,27,12,04,8.80
2009,11,27,12,05,8.80
2009,11,27,12,06,8.80
2009,11,27,12,07,8.90
2009,11,27,12,08,8.90
2009,11,27,12,09,8.90
2009,11,27,12,10,8.90
2009,11,27,12,11,9.00
2009,11,27,12,12,9.00
2009,11,27,12,13,9.00
2009,11,27,12,14,9.00
2009,11,27,12,15,9.00
2009,11,27,12,16,9.00
2009,11,27,12,17,9.00
2009,11,27,12,18,8.90
2009,11,27,12,19,8.90
2009,11,27,12,20,9.00
2009,11,27,12,21,9.00
2009,11,27,12,22,9.00
2009,11,27,12,23,9.10
2009,11,27,12,24,9.10
2009,11,27,12,25,9.00
2009,11,27,12,26,9.00
2009,11,27,12,27,9.00
2009,11,27,12,28,8.90
2009,11,27,12,29,8.90
2009,11,27,12,30,8.80
2009,11,27,12,31,8.80
2009,11,27,12,32,8.70
2009,11,27,12,33,8.70
2009,11,27,12,34,8.80
2009,11,27,12,35,8.80
2009,11,27,12,36,8.90
2009,11,27,12,37,8.90
2009,11,27,12,38,8.90
2009,11,27,12,39,9.00
2009,11,27,12,40,9.00
2009,11,27,12,41,9.00
2009,11,27,12,42,9.10
2009,11,27,12,43,9.10
2009,11,27,12,44,9.10
2009,11,27,12,45,9.10
2009,11,27,12,46,9.10
2009,11,27,12,47,9.10
2009,11,27,12,48,9.10
2009,11,27,12,49,9.10
2009,11,27,12,50,9.20
2009,11,27,12,51,9.20
2009,11,27,12,52,9.20
2009,11,27,12,53,9.20
2009,11,27,12,54,9.20
2009,11,27,12,55,9.20
2009,11,27,12,56,9.30
2009,11,27,12,57,9.30
2009,11,27,12,58,9.30
2009,11,27,12,59,9.30
2009,11,27,13,00,9.30
2009,11,27,13,01,9.30
2009,11,27,13,02,9.30
2009,11,27,13,03,9.30
2009,11,27,13,04,9.30
2009,11,27,13,05,9.20
2009,11,27,13,06,9.20
2009,11,27,13,07,9.20
2009,11,27,13,08,9.20
2009,11,27,13,09,9.20
2009,11,27,13,10,9.20
2009,11,27,13,11,9.20
2009,11,27,13,12,9.20
2009,11,27,13,13,9.20
2009,11,27,13,14,9.20
2009,11,27,13,15,9.20
2009,11,27,13,16,9.20
2009,11,27,13,17,9.20
2009,11,27,13,18,9.20
2009,11,27,13,19,9.10
2009,11,27,13,20,9.00
2009,11,27,13,21,8.90
2009,11,27,13,22,8.90
2009,11,27,13,23,8.80
2009,11,27,13,24,8.70
2009,11,27,13,25,8.70
2009,11,27,13,26,8.70
2009,11,27,13,27,8.70
2009,11,27,13,28,8.70
2009,11,27,13,29,8.70
2009,11,27,13,30,8.70
2009,11,27,13,31,8.70
2009,11,27,13,32,8.70
2009,11,27,13,33,8.70
2009,11,27,13,34,8.70
2009,11,27,13,35,8.70
2009,11,27,13,36,8.70
2009,11,27,13,37,8.70
2009,11,27,13,38,8.80
2009,11,27,13,39,8.90
2009,11,27,13,40,8.90
2009,11,27,13,41,9.00
2009,11,27,13,42,9.00
2009,11,27,13,43,9.00
2009,11,27,13,44,9.00
2009,11,27,13,45,9.00
2009,11,27,13,46,9.00
2009,11,27,13,47,9.00
2009,11,27,13,48,9.00
2009,11,27,13,49,9.00
2009,11,27,13,50,8.90
2009,11,27,13,51,8.90
2009,11,27,13,52,8.90
2009,11,27,13,53,8.80
2009,11,27,13,54,8.70
2009,11,27,13,55,8.70
2009,11,27,13,56,8.80
2009,11,27,13,57,8.80
2009,11,27,13,58,8.80
2009,11,27,13,59,8.80
2009,11,27,14,00,8.80
2009,11,27,14,01,8.80
2009,11,27,14,02,8.80
2009,11,27,14,03,8.80
2009,11,27,14,04,8.80
2009,11,27,14,05,8.80
2009,11,27,14,06,8.80
2009,11,27,14,07,8.80
2009,11,27,14,08,8.80
2009,11,27,14,09,8.80
2009,11,27,14,10,8.80
2009,11,27,14,11,8.90
2009,11,27,14,12,8.90
2009,11,27,14,13,8.90
2009,11,27,14,14,8.90
2009,11,27,14,15,8.90
2009,11,27,14,16,8.90
2009,11,27,14,17,8.80
2009,11,27,14,18,8.80
2009,11,27,14,19,8.70
2009,11,27,14,20,8.70
2009,11,27,14,21,8.70
2009,11,27,14,22,8.70
2009,11,27,14,23,8.70
2009,11,27,14,24,8.60
2009,11,27,14,25,8.60
2009,11,27,14,26,8.70
2009,11,27,14,27,8.70
2009,11,27,14,28,8.70
2009,11,27,14,29,8.70
2009,11,27,14,30,8.70
2009,11,27,14,31,8.70
2009,11,27,14,32,8.80
2009,11,27,14,33,8.90
2009,11,27,14,34,8.90
2009,11,27,14,35,8.90
2009,11,27,14,36,8.90
2009,11,27,14,37,9.00
2009,11,27,14,38,9.00
2009,11,27,14,39,9.10
2009,11,27,14,40,9.10
2009,11,27,14,41,9.00
2009,11,27,14,42,9.00
2009,11,27,14,43,9.00
2009,11,27,14,44,9.00
2009,11,27,14,45,9.00
2009,11,27,14,46,9.00
2009,11,27,14,47,9.10
2009,11,27,14,48,9.10
2009,11,27,14,49,9.10
2009,11,27,14,50,9.10
2009,11,27,14,51,9.10
2009,11,27,14,52,9.10
2009,11,27,14,53,9.00
2009,11,27,14,54,9.00
2009,11,27,14,55,8.90
2009,11,27,14,56,8.90
2009,11,27,14,57,8.90
2009,11,27,14,58,8.90
2009,11,27,14,59,8.90
2009,11,27,15,00,8.90
2009,11,27,15,01,8.90
2009,11,27,15,02,8.90
2009,11,27,15,03,8.90
2009,11,27,15,04,8.90
2009,11,27,15,05,8.80
2009,11,27,15,06,8.80
2009,11,27,15,07,8.80
2009,11,27,15,08,8.90
2009,11,27,15,09,8.90
2009,11,27,15,10,8.90
2009,11,27,15,11,8.90
2009,11,27,15,12,8.90
2009,11,27,15,13,8.90
2009,11,27,15,14,8.90
2009,11,27,15,15,8.90
2009,11,27,15,16,8.90
2009,11,27,15,17,8.90
2009,11,27,15,18,8.90
2009,11,27,15,19,8.90
2009,11,27,15,20,8.90
2009,11,27,15,21,8.90
2009,11,27,15,22,8.90
2009,11,27,15,23,8.90
2009,11,27,15,24,8.90
2009,11,27,15,25,9.00
2009,11,27,15,26,9.00
2009,11,27,15,27,9.00
2009,11,27,15,28,9.00
2009,11,27,15,29,8.90
2009,11,27,15,30,8.90
2009,11,27,15,31,8.90
2009,11,27,15,32,9.00
2009,11,27,15,33,9.00
2009,11,27,15,34,8.90
2009,11,27,15,35,8.90
2009,11,27,15,36,8.90
2009,11,27,15,37,8.90
2009,11,27,15,38,9.00
2009,11,27,15,39,8.90
2009,11,27,15,40,8.90
2009,11,27,15,41,8.90
2009,11,27,15,42,8.80
2009,11,27,15,43,8.70
2009,11,27,15,44,8.70
2009,11,27,15,45,8.70
2009,11,27,15,46,8.70
2009,11,27,15,47,8.70
2009,11,27,15,48,8.70
2009,11,27,15,49,8.60
2009,11,27,15,50,8.60
2009,11,27,15,51,8.60
2009,11,27,15,52,8.50
2009,11,27,15,53,8.50
2009,11,27,15,54,8.50
2009,11,27,15,55,8.40
2009,11,27,15,56,8.40
2009,11,27,15,57,8.40
2009,11,27,15,58,8.30
2009,11,27,15,59,8.20
2009,11,27,16,00,8.20
2009,11,27,16,01,8.20
2009,11,27,16,02,8.20
2009,11,27,16,03,8.20
2009,11,27,16,04,8.20
2009,11,27,16,05,8.20
2009,11,27,16,06,8.20
2009,11,27,16,07,8.20
2009,11,27,16,08,8.20
2009,11,27,16,09,8.20
2009,11,27,16,10,8.20
2009,11,27,16,11,8.20
2009,11,27,16,12,8.10
2009,11,27,16,13,8.10
2009,11,27,16,14,8.10
2009,11,27,16,15,8.10
2009,11,27,16,16,8.10
2009,11,27,16,17,8.10
2009,11,27,16,18,8.00
2009,11,27,16,19,8.00
2009,11,27,16,20,8.00
2009,11,27,16,21,8.00
2009,11,27,16,22,8.00
2009,11,27,16,23,8.00
2009,11,27,16,24,7.90
2009,11,27,16,25,7.90
2009,11,27,16,26,7.90
2009,11,27,16,27,7.90
2009,11,27,16,28,7.90
2009,11,27,16,29,7.80
2009,11,27,16,30,7.80
2009,11,27,16,31,7.80
2009,11,27,16,32,7.80
2009,11,27,16,33,7.80
2009,11,27,16,34,7.80
2009,11,27,16,35,7.80
2009,11,27,16,36,7.80
2009,11,27,16,37,7.80
2009,11,27,16,38,7.80
2009,11,27,16,39,7.80
2009,11,27,16,40,7.80
2009,11,27,16,41,7.80
2009,11,27,16,42,7.80
2009,11,27,16,43,7.80
2009,11,27,16,44,7.70
2009,11,27,16,45,7.70
2009,11,27,16,46,7.70
2009,11,27,16,47,7.70
2009,11,27,16,48,7.70
2009,11,27,16,49,7.70
2009,11,27,16,50,7.70
2009,11,27,16,51,7.70
2009,11,27,16,52,7.70
2009,11,27,16,53,7.70
2009,11,27,16,54,7.70
2009,11,27,16,55,7.70
2009,11,27,16,56,7.60
2009,11,27,16,57,7.60
2009,11,27,16,58,7.60
2009,11,27,16,59,7.60
2009,11,27,17,00,7.60
2009,11,27,17,01,7.60
2009,11,27,17,02,7.60
2009,11,27,17,03,7.60
2009,11,27,17,04,7.60
2009,11,27,17,05,7.60
2009,11,27,17,06,7.60
2009,11,27,17,07,7.60
2009,11,27,17,08,7.60
2009,11,27,17,09,7.50
2009,11,27,17,10,7.50
2009,11,27,17,11,7.50
2009,11,27,17,12,7.50
2009,11,27,17,13,7.40
2009,11,27,17,14,7.40
2009,11,27,17,15,7.40
2009,11,27,17,16,7.40
2009,11,27,17,17,7.40
2009,11,27,17,18,7.40
2009,11,27,17,19,7.40
2009,11,27,17,20,7.40
2009,11,27,17,21,7.40
2009,11,27,17,22,7.40
2009,11,27,17,23,7.40
2009,11,27,17,24,7.30
2009,11,27,17,25,7.30
2009,11,27,17,26,7.30
2009,11,27,17,27,7.30
2009,11,27,17,28,7.30
2009,11,27,17,29,7.40
2009,11,27,17,30,7.40
2009,11,27,17,31,7.40
2009,11,27,17,32,7.40
2009,11,27,17,33,7.40
2009,11,27,17,34,7.40
2009,11,27,17,35,7.40
2009,11,27,17,36,7.40
2009,11,27,17,37,7.40
2009,11,27,17,38,7.40
2009,11,27,17,39,7.40
2009,11,27,17,40,7.40
2009,11,27,17,41,7.40
2009,11,27,17,42,7.40
2009,11,27,17,43,7.40
2009,11,27,17,44,7.40
2009,11,27,17,45,7.50
2009,11,27,17,46,7.50
2009,11,27,17,47,7.50
2009,11,27,17,48,7.50
2009,11,27,17,49,7.50
2009,11,27,17,50,7.50
2009,11,27,17,51,7.50
2009,11,27,17,52,7.50
2009,11,27,17,53,7.50
2009,11,27,17,54,7.50
2009,11,27,17,55,7.50
2009,11,27,17,56,7.50
2009,11,27,17,57,7.60
2009,11,27,17,58,7.60
2009,11,27,17,59,7.60
2009,11,27,18,00,7.60
2009,11,27,18,01,7.60
2009,11,27,18,02,7.60
2009,11,27,18,03,7.60
2009,11,27,18,04,7.60
2009,11,27,18,05,7.60
2009,11,27,18,06,7.60